VA7IS Weather Reports


time (UTC)temp
F
wind
direction
speed
knots
gust
knots
rain 1hr
in
rain 24hr
in
rain mn
in
humidity
%
barometer
mb
20260506112504 57 0 0.0 0.0 0.00 0.00 0.00 1 1016.0
20260506112004 57 0 0.0 0.0 0.00 0.00 0.00 1 1015.9
20260506111505 57 0 0.0 0.0 0.00 0.00 0.00 1 1015.8
20260506111005 57 0 0.0 0.0 0.00 0.00 0.00 1 1015.7
20260506110504 57 0 0.0 0.0 0.00 0.00 0.00 1 1015.6
20260506110005 57 0 0.0 0.0 0.00 0.00 0.00 1 1015.6
20260506105504 57 0 0.0 0.0 0.00 0.00 0.00 1 1015.6
20260506105005 57 0 0.0 0.0 0.00 0.00 0.00 1 1015.5
20260506104504 57 0 0.0 0.0 0.00 0.00 0.00 1 1015.5
20260506104004 57 0 0.0 0.0 0.00 0.00 0.00 1 1015.5
20260506103504 57 0 0.0 0.0 0.00 0.00 0.00 1 1015.4
20260506103005 57 0 0.0 0.0 0.00 0.00 0.00 1 1015.4
20260506102504 57 0 0.0 0.0 0.00 0.00 0.00 1 1015.5
20260506102004 56 0 0.0 0.0 0.00 0.00 0.00 1 1015.4
20260506101505 56 0 0.0 0.0 0.00 0.00 0.00 1 1015.3
20260506101004 56 0 0.0 0.0 0.00 0.00 0.00 1 1015.3
20260506100504 56 0 0.0 0.0 0.00 0.00 0.00 1 1015.2
20260506100005 56 0 0.0 0.0 0.00 0.00 0.00 1 1015.2
20260506095505 56 0 0.0 0.0 0.00 0.00 0.00 1 1015.1
20260506095004 56 0 0.0 0.0 0.00 0.00 0.00 1 1015.0
20260506094005 56 0 0.0 0.0 0.00 0.00 0.00 1 1015.0
20260506093005 56 0 0.0 0.0 0.00 0.00 0.00 1 1015.0
20260506092504 56 0 0.0 0.0 0.00 0.00 0.00 1 1014.9
20260506092004 55 0 0.0 0.0 0.00 0.00 0.00 1 1015.0
20260506091504 55 0 0.0 0.0 0.00 0.00 0.00 1 1014.9
20260506090504 55 0 0.0 0.0 0.00 0.00 0.00 1 1014.9
20260506090005 55 0 0.0 0.0 0.00 0.00 0.00 1 1014.9
20260506085504 55 0 0.0 0.9 0.00 0.00 0.00 1 1014.9
20260506085004 55 0 0.0 1.7 0.00 0.00 0.00 1 1014.9
20260506084005 55 0 0.0 0.9 0.00 0.00 0.00 1 1014.8
20260506083504 55 0 0.0 0.9 0.00 0.00 0.00 1 1014.7
20260506083005 55 0 0.0 0.9 0.00 0.00 0.00 1 1014.7
20260506082504 55 0 0.0 1.7 0.00 0.00 0.00 1 1014.7
20260506082004 55 0 0.0 1.7 0.00 0.00 0.00 1 1014.7
20260506081505 55 0 0.0 0.0 0.00 0.00 0.00 1 1014.7
20260506081004 55 233 0.9 1.7 0.00 0.00 0.00 1 1014.7
20260506080505 55 233 0.9 1.7 0.00 0.00 0.00 1 1014.6
20260506073505 56 0 0.0 0.0 0.00 0.00 0.00 1 1014.3
20260506073004 56 0 0.0 0.0 0.00 0.00 0.00 1 1014.2
20260506072505 56 0 0.0 0.0 0.00 0.00 0.00 1 1014.2
20260506072004 56 0 0.0 0.0 0.00 0.00 0.00 1 1014.2
20260506071505 56 0 0.0 0.0 0.00 0.00 0.00 1 1014.2
20260506071004 56 0 0.0 0.0 0.00 0.00 0.00 1 1014.2
20260506070504 56 0 0.0 0.0 0.00 0.00 0.00 1 1014.2
20260506062004 56 0 0.0 0.0 0.00 0.00 0.00 1 1013.9
20260506061505 56 0 0.0 0.0 0.00 0.00 0.00 1 1013.9
20260506061004 56 233 0.9 0.9 0.00 0.00 0.00 1 1013.9
20260506060504 56 233 0.9 1.7 0.00 0.00 0.00 1 1013.8
20260506051004 57 234 0.9 1.7 0.00 0.00 0.00 1 1013.5
20260506050504 57 234 0.9 1.7 0.00 0.00 0.00 1 1013.5
20260506045004 57 234 0.9 1.7 0.00 0.00 0.00 1 1013.3
20260506044505 57 234 0.9 1.7 0.00 0.00 0.00 1 1013.2
20260506044004 57 0 0.0 1.7 0.00 0.00 0.00 1 1013.2
20260506042504 57 0 0.0 0.0 0.00 0.00 0.00 10 1013.2
20260506042004 57 0 0.0 0.0 0.00 0.00 0.00 16 1013.1
20260506041004 58 0 0.0 0.9 0.00 0.00 0.00 27 1013.0
20260506040504 59 0 0.0 0.9 0.00 0.00 0.00 29 1013.0
20260506040004 59 0 0.0 0.9 0.00 0.00 0.00 29 1012.9
20260506035504 59 0 0.0 0.0 0.00 0.00 0.00 29 1012.9
20260506035005 59 0 0.0 0.9 0.00 0.00 0.00 32 1012.8
20260506034505 60 0 0.0 1.7 0.00 0.00 0.00 33 1012.7
20260506033504 60 0 0.0 0.9 0.00 0.00 0.00 35 1012.6
20260506033005 60 0 0.0 0.9 0.00 0.00 0.00 38 1012.6
20260506032504 61 0 0.0 0.9 0.00 0.00 0.00 37 1012.5
20260506032005 61 0 0.0 0.9 0.00 0.00 0.00 39 1012.5
20260506031504 61 168 0.9 1.7 0.00 0.00 0.00 42 1012.4
20260506031005 62 168 0.9 1.7 0.00 0.00 0.00 48 1012.5
20260506030505 62 0 0.0 0.9 0.00 0.00 0.00 50 1012.4
20260506030005 62 0 0.0 0.9 0.00 0.00 0.00 51 1012.4
20260506025504 62 0 0.0 2.6 0.00 0.00 0.00 51 1012.4
20260506025005 62 163 0.9 2.6 0.00 0.00 0.00 52 1012.4
20260506024004 63 266 0.9 1.7 0.00 0.00 0.00 53 1012.4
20260506023004 63 156 0.9 2.6 0.00 0.00 0.00 54 1012.4
20260506022504 63 0 0.0 2.6 0.00 0.00 0.00 54 1012.4
20260506021504 63 189 0.9 2.6 0.00 0.00 0.00 54 1012.3
20260506020504 63 183 0.9 2.6 0.00 0.00 0.00 54 1012.4
20260506020004 63 207 0.9 2.6 0.00 0.00 0.00 55 1012.4
20260506015503 64 224 0.9 2.6 0.00 0.00 0.00 54 1012.3
20260506015004 64 196 1.7 3.5 0.00 0.00 0.00 54 1012.4
20260506014504 64 166 1.7 4.3 0.00 0.00 0.00 54 1012.3
20260506014005 64 182 1.7 4.3 0.00 0.00 0.00 54 1012.3
20260506013504 64 179 1.7 5.2 0.00 0.00 0.00 54 1012.3
20260506013005 64 156 1.7 5.2 0.00 0.00 0.00 55 1012.4
20260506012504 65 149 1.7 4.3 0.00 0.00 0.00 55 1012.4
20260506012004 65 187 1.7 4.3 0.00 0.00 0.00 55 1012.3
20260506011504 65 241 1.7 4.3 0.00 0.00 0.00 55 1012.4
20260506011004 65 204 1.7 4.3 0.00 0.00 0.00 55 1012.4
20260506010504 65 182 1.7 4.3 0.00 0.00 0.00 55 1012.5
20260506010004 65 160 1.7 5.2 0.00 0.00 0.00 55 1012.5
20260506005504 65 162 1.7 5.2 0.00 0.00 0.00 56 1012.5
20260506005004 66 179 1.7 5.2 0.00 0.00 0.00 55 1012.4
20260506004505 66 185 1.7 5.2 0.00 0.00 0.00 56 1012.4
20260506004004 66 178 1.7 6.1 0.00 0.00 0.00 56 1012.4
20260506003503 66 170 1.7 6.1 0.00 0.00 0.00 56 1012.3
20260506003004 67 181 2.6 6.1 0.00 0.00 0.00 55 1012.4
20260506002504 67 185 1.7 6.1 0.00 0.00 0.00 55 1012.4
20260506002003 67 169 1.7 4.3 0.00 0.00 0.00 55 1012.4
20260506001005 67 166 2.6 6.1 0.00 0.00 0.00 55 1012.4
20260506000504 67 179 2.6 6.1 0.00 0.00 0.00 55 1012.4
20260505235504 68 166 1.7 5.2 0.00 0.00 0.00 55 1012.5
20260505235005 68 159 1.7 6.1 0.00 0.00 0.00 55 1012.6
20260505234504 68 162 2.6 6.1 0.00 0.00 0.00 55 1012.6
20260505234004 67 178 2.6 5.2 0.00 0.00 0.00 55 1012.6
20260505233504 68 196 1.7 4.3 0.00 0.00 0.00 54 1012.6
20260505233004 68 175 1.7 7.8 0.00 0.00 0.00 54 1012.7
20260505232504 69 169 1.7 7.8 0.00 0.00 0.00 54 1012.7
20260505232004 69 170 1.7 5.2 0.00 0.00 0.00 54 1012.8
20260505231504 69 176 1.7 5.2 0.00 0.00 0.00 54 1012.8
20260505231005 69 173 1.7 8.7 0.00 0.00 0.00 54 1012.8
20260505230504 69 184 2.6 8.7 0.00 0.00 0.00 54 1012.9
20260505230005 69 196 1.7 5.2 0.00 0.00 0.00 54 1012.9
20260505225504 69 186 2.6 5.2 0.00 0.00 0.00 55 1013.0
20260505225004 68 174 1.7 5.2 0.00 0.00 0.00 54 1013.1
20260505224004 69 176 1.7 7.0 0.00 0.00 0.00 54 1013.1
20260505223504 68 176 2.6 7.0 0.00 0.00 0.00 54 1013.1
20260505223005 69 161 2.6 7.0 0.00 0.00 0.00 54 1013.1
20260505222504 69 150 2.6 7.0 0.00 0.00 0.00 54 1013.1
20260505221504 69 174 2.6 5.2 0.00 0.00 0.00 54 1013.2
20260505221004 69 165 2.6 6.1 0.00 0.00 0.00 54 1013.2
20260505220504 70 193 1.7 6.1 0.00 0.00 0.00 53 1013.2
20260505220004 70 231 1.7 4.3 0.00 0.00 0.00 53 1013.3
20260505215504 69 188 2.6 7.8 0.00 0.00 0.00 54 1013.3
20260505215004 68 169 2.6 7.8 0.00 0.00 0.00 54 1013.3
20260505214505 68 188 2.6 7.0 0.00 0.00 0.00 54 1013.4
20260505214004 69 183 2.6 7.0 0.00 0.00 0.00 54 1013.4
20260505213504 69 223 2.6 7.0 0.00 0.00 0.00 54 1013.4
20260505213004 70 214 2.6 7.8 0.00 0.00 0.00 54 1013.4
20260505212504 68 188 1.7 7.8 0.00 0.00 0.00 54 1013.4
20260505212004 69 222 1.7 7.0 0.00 0.00 0.00 53 1013.4
20260505211504 68 165 2.6 7.0 0.00 0.00 0.00 55 1013.4
20260505211004 68 171 1.7 7.0 0.00 0.00 0.00 54 1013.4
20260505210504 69 205 2.6 5.2 0.00 0.00 0.00 54 1013.5
20260505210004 67 214 2.6 7.8 0.00 0.00 0.00 54 1013.6
20260505205503 68 207 2.6 7.8 0.00 0.00 0.00 55 1013.7
20260505204504 67 159 1.7 4.3 0.00 0.00 0.00 55 1013.8
20260505204004 69 191 2.6 5.2 0.00 0.00 0.00 54 1013.7
20260505203504 67 205 2.6 5.2 0.00 0.00 0.00 55 1013.8
20260505203004 67 207 1.7 6.1 0.00 0.00 0.00 55 1013.8
20260505202504 67 198 1.7 6.1 0.00 0.00 0.00 55 1013.8
20260505201504 66 162 1.7 5.2 0.00 0.00 0.00 55 1013.9
20260505201004 68 174 1.7 5.2 0.00 0.00 0.00 54 1013.7
20260505195504 68 148 0.9 6.1 0.00 0.00 0.00 54 1013.9
20260505194504 65 166 1.7 3.5 0.00 0.00 0.00 52 1013.9
20260505194004 65 169 2.6 5.2 0.00 0.00 0.00 50 1014.0
20260505193503 64 178 2.6 5.2 0.00 0.00 0.00 51 1014.0
20260505193004 65 198 1.7 5.2 0.00 0.00 0.00 52 1014.0
20260505192004 63 166 2.6 7.0 0.00 0.00 0.00 50 1013.9
20260505191504 65 164 2.6 6.1 0.00 0.00 0.00 51 1013.9
20260505191004 64 164 2.6 6.1 0.00 0.00 0.00 45 1013.9
20260505190504 64 182 2.6 6.1 0.00 0.00 0.00 50 1014.0
20260505190004 63 187 2.6 6.1 0.00 0.00 0.00 47 1014.0
20260505185504 63 182 2.6 6.1 0.00 0.00 0.00 47 1014.0
20260505184504 63 208 2.6 6.1 0.00 0.00 0.00 47 1014.0
20260505184004 63 198 2.6 6.1 0.00 0.00 0.00 45 1014.0
20260505183503 62 162 2.6 6.1 0.00 0.00 0.00 39 1014.0
20260505183004 62 168 2.6 6.1 0.00 0.00 0.00 43 1014.0
20260505182503 62 182 3.5 7.8 0.00 0.00 0.00 43 1013.9
20260505181504 63 172 2.6 5.2 0.00 0.00 0.00 44 1013.8
20260505181003 62 179 2.6 6.1 0.00 0.00 0.00 42 1013.8
20260505180503 63 175 2.6 6.1 0.00 0.00 0.00 44 1013.7
20260505175504 63 171 2.6 6.1 0.00 0.00 0.00 47 1013.7
20260505175003 63 169 2.6 6.1 0.00 0.00 0.00 42 1013.8
20260505174504 63 170 2.6 4.3 0.00 0.00 0.00 47 1013.8
20260505174004 64 162 1.7 4.3 0.00 0.00 0.00 48 1013.7
20260505173504 63 167 1.7 4.3 0.00 0.00 0.00 49 1013.7
20260505172503 64 197 1.7 3.5 0.00 0.00 0.00 53 1013.7
20260505172004 64 217 1.7 4.3 0.00 0.00 0.00 53 1013.7
20260505171505 64 221 1.7 4.3 0.00 0.00 0.00 52 1013.7
20260505171003 64 195 1.7 5.2 0.00 0.00 0.00 51 1013.7
20260505170504 63 189 1.7 5.2 0.00 0.00 0.00 50 1013.7
20260505170003 63 184 2.6 4.3 0.00 0.00 0.00 48 1013.8
20260505165504 62 162 1.7 5.2 0.00 0.00 0.00 47 1013.8
20260505165003 62 150 1.7 5.2 0.00 0.00 0.00 47 1013.7
20260505164004 62 160 1.7 3.5 0.00 0.00 0.00 47 1013.7
20260505163503 62 195 1.7 4.3 0.00 0.00 0.00 47 1013.7
20260505163004 62 198 1.7 4.3 0.00 0.00 0.00 45 1013.7
20260505162503 61 181 1.7 3.5 0.00 0.00 0.00 40 1013.7
20260505162003 61 181 1.7 4.3 0.00 0.00 0.00 41 1013.7
20260505161504 61 189 1.7 4.3 0.00 0.00 0.00 41 1013.6
20260505161003 61 197 1.7 3.5 0.00 0.00 0.00 40 1013.6
20260505160503 61 187 0.9 3.5 0.00 0.00 0.00 41 1013.6
20260505153004 62 214 0.9 1.7 0.00 0.00 0.00 44 1013.5
20260505152504 61 0 0.0 1.7 0.00 0.00 0.00 32 1013.5
20260505152003 60 0 0.0 2.6 0.00 0.00 0.00 22 1013.4
20260505151504 59 254 0.9 2.6 0.00 0.00 0.00 21 1013.4
20260505151004 58 0 0.0 1.7 0.00 0.00 0.00 8 1013.4
20260505150503 58 0 0.0 1.7 0.00 0.00 0.00 3 1013.4
20260505124503 56 298 0.9 1.7 0.00 0.00 0.00 41 1011.9
20260505124004 56 298 0.9 1.7 0.00 0.00 0.00 42 1011.8
20260505123504 56 299 0.9 0.9 0.00 0.00 0.00 42 1011.7
20260505123003 56 0 0.0 0.9 0.00 0.00 0.00 41 1011.7
20260505122504 56 0 0.0 1.7 0.00 0.00 0.00 38 1011.7
20260505122003 56 0 0.0 1.7 0.00 0.00 0.00 38 1011.7
20260505121504 56 0 0.0 0.9 0.00 0.00 0.00 37 1011.6
20260505121003 56 0 0.0 1.7 0.00 0.00 0.00 39 1011.6
20260505120504 57 0 0.0 1.7 0.00 0.00 0.00 39 1011.6
20260505120004 57 0 0.0 0.9 0.00 0.00 0.00 42 1011.6
20260505115003 57 298 0.9 1.7 0.00 0.00 0.00 44 1011.4
20260505114504 57 299 0.9 1.7 0.00 0.00 0.00 45 1011.4
20260505114004 57 298 0.9 1.7 0.00 0.00 0.00 43 1011.3
20260505113503 57 299 0.9 1.7 0.00 0.00 0.00 42 1011.3
20260505113004 57 0 0.0 1.7 0.00 0.00 0.00 39 1011.2